Location: Ellingshausen
(50.5460°N, 10.4723°E)
Time: 23:26:50
(UTC+00:00)

Okean 1-7 - Pass Details

Date: 18 January 2026
Orbit: 566 x 588 km, 82.5° (Epoch: 9 February)

Event Time Altitude Azimuth Distance (km) Brightness Sun altitude
Exits shadow 06:27:45 - 334° (NNW) 2,608 5.8 -6.8°
Reaches altitude 10° 06:29:56 10° 319° (NW) 1,885 5.0 -6.5°
Maximum altitude 06:32:51 19° 274° (W) 1,401 4.3 -6.1°
Drops below altitude 10° 06:35:46 10° 229° (SW) 1,883 5.3 -5.7°
Sets 06:38:27 0° 211° (SSW) 2,780 6.4 -5.3°
